Regional Weather Roundup
Issued by NWS

Home | Current Version | Previous Version | Graphics & Text | Print | Product List | Glossary On
Versions: 1 2 3 4 5 6 7 8 9 10 11 12 13 14 15 16 17 18 19 20 21 22 23 24 25 26 27 28 29 30 31 32 33 34 35 36 37 38 39 40 41 42 43 44 45 46 47 48 49 50
000
ASUS45 KSLC 310210
RWRUT

UTAH REGIONAL WEATHER ROUNDUP
NATIONAL WEATHER SERVICE SALT LAKE CITY UT
800 PM MDT WED JUL 30 2014

UTZ001>011-023>025-310300-

NORTHERN UTAH

CITY           SKY/WX    TMP DP  RH WIND       PRES   REMARKS
HILL AFB       PTCLDY    74  54  48 E14G25    30.20R
LOGAN          CLEAR     74  52  46 E25G33    30.21R
OGDEN          CLEAR     77  52  41 NE20      30.17R
PROVO AIRPORT  NOT AVBL
SALT LAKE CITY PTCLDY    78  54  43 E10       30.13R
VERNAL         CLOUDY    69  53  56 N15       30.24R
WENDOVER       CLEAR     82  52  34 E9        30.15R
HEBER CITY     MOCLDY    68  54  60 N3        30.26R
WEST JORDAN    CLEAR     79  63  57 N12       30.17S

$$

UTZ012>022-026-027-310300-

SOUTHERN UTAH

CITY           SKY/WX    TMP DP  RH WIND       PRES   REMARKS
BRYCE CANYON   PTCLDY    72  46  39 NW9       30.32F
CEDAR CITY     MOCLDY    76  50  40 N3        30.17S
MILFORD        PTCLDY    84  48  28 NE13      30.12F
MOAB/CYNLANDS  CLEAR     80  55  42 NE23      30.08R
PRICE          MOCLDY    73  54  51 NE20      30.21R
ST GEORGE      CLEAR     99  50  19 NW7       29.94R HX  95
KANAB            N/A     82  52  34 NE13      30.13R

$$

REGIONAL REPORTS     COLORADO/ARIZONA

CITY           SKY/WX    TMP DP  RH WIND       PRES   REMARKS
CRAIG, CO      LGT RAIN  59  56  89 E7        30.29R
GRAND JUNCTION MOCLDY    71  59  65 W9        30.13F
RIFLE          CLOUDY    72  55  55 CALM      30.20R
MONTROSE       CLEAR     77  52  41 NW13      30.19S
CORTEZ         CLEAR     81  49  32 N12       30.16S
PAGE, AZ       PTCLDY    90  50  25 NW12G17   30.03R
GRAND CANYON   PTCLDY    80  48  32 VRB5      30.24S
KINGMAN        CLEAR     97  47  18 N15       29.98R HX  93
FLAGSTAFF      CLEAR     79  43  27 W10       30.29R

$$

REGIONAL REPORTS    NEVADA/IDAHO/WYOMING

CITY           SKY/WX    TMP DP  RH WIND       PRES   REMARKS
LAS VEGAS, NV  PTCLDY   102  48  16 S3        29.83S HX  98
ELY            PTCLDY    80  39  23 N8        30.24S
ELKO           MOCLDY    82  43  25 SE6       30.17S
POCATELLO, ID  PTCLDY    80  48  32 SE10      30.20R
BURLEY         LGT RAIN  73  56  54 CALM      30.17R
EVANSTON, WY   CLOUDY    59  53  80 E16       30.38S
ROCK SPRINGS   CLOUDY    60  45  57 E15       30.37S

$$


USA.gov is the U.S. government's official web portal to all federal, state and local government web resources and services.